Location: Krakow
(50.0830°N, 19.9170°E)
Time: 12:09:58
(UTC+01:00)

Vanguard 1 Rocket - All Passes

Search period start: 15 March 2026 00:00
Search period end: 25 March 2026 00:00
Orbit: 653 x 4214 km, 34.3° (Epoch: 14 March)

Date Brightness Start Highest point End Pass type
(mag) Time Alt. Az. Time Alt. Az. Time Alt. Az.
15 Mar - 09:32:21 10° SSW 09:34:01 12° S 09:35:47 10° SSE daylight
16 Mar - 08:20:41 10° SSW 08:22:18 12° S 08:23:56 10° SSE daylight
17 Mar - 07:09:03 10° SSW 07:10:36 11° S 07:12:04 10° SSE daylight
18 Mar - 05:57:37 10° S 05:58:49 11° S 05:59:56 10° SSE daylight
18 Mar - 08:21:07 10° SSW 08:22:33 11° S 08:23:58 10° SSE daylight
19 Mar - 07:08:43 10° SSW 07:10:51 13° S 07:12:50 10° SSE daylight
20 Mar - 05:56:20 10° SSW 05:59:06 13° S 06:01:29 10° SSE daylight
20 Mar - 08:22:01 10° SSW 08:22:47 10° SSW 08:23:33 10° S daylight
21 Mar - 04:44:01 10° SSW 04:47:11 13° S 04:49:50 10° SE visible
21 Mar - 07:08:39 10° SW 07:11:07 13° S 07:13:20 10° SSE daylight
22 Mar - 03:32:10 10° S 03:35:04 12° SSE 03:37:32 10° SE visible
22 Mar - 05:55:44 10° SW 05:59:23 16° S 06:02:22 10° SE daylight
23 Mar - 04:42:45 10° SSW 04:47:30 17° S 04:51:07 10° SE visible
23 Mar - 07:08:46 10° SW 07:11:20 13° SSW 07:13:37 10° SSE daylight
24 Mar - 03:29:50 10° SSW 03:35:22 16° S 03:39:29 10° SE visible
24 Mar - 05:55:21 10° SW 05:59:39 17° S 06:03:01 10° SE daylight
